Wind_Speed
67 63 62 63 64 62 61 61 61 63 65 66 67 69 70 71 72 74 75 75 77 77 77 77 77 78 79
68 68 68 66 66 66 67 67 67 68 70 71 73 75 76 77 78 78 79 80 80 80 80 81 81 76 70
70 73 73 72 71 71 72 74 74 75 77 78 79 80 82 82 83 83 84 85 85 85 85 81 73 66 62
74 74 76 76 77 76 77 79 79 81 82 83 84 85 87 89 89 90 90 90 88 85 80 73 65 60 56
76 75 75 77 79 81 82 83 83 85 86 88 91 92 94 95 94 93 91 87 82 76 69 61 57 55 55
78 79 79 81 83 86 89 91 91 93 97 95 98 96 95 93 90 85 81 75 69 61 56 54 53 54 53
83 85 87 90 94 96 98 100 99 98 99 95 93 89 86 84 77 70 66 58 53 52 52 52 52 50 50
92 94 96 96 98 98 97 95 94 91 89 86 80 76 69 65 59 52 51 48 48 48 48 47 45 45 45
93 91 89 88 87 89 88 88 84 77 74 68 60 56 49 44 44 45 42 39 38 38 40 40 41 41 41
82 79 75 71 67 67 70 69 64 61 53 50 44 38 37 38 38 35 32 30 32 35 37 38 38 38 39
66 57 47 48 51 57 56 53 46 42 37 34 30 28 33 30 29 27 29 31 31 33 34 35 36 36 36
39 38 39 43 49 45 36 32 26 23 21 17 27 29 30 27 26 27 29 28 28 31 33 34 34 33 34
39 36 37 40 39 31 23 22 21 21 24 26 24 23 21 23 23 25 26 26 28 31 32 32 31 30 30
36 34 35 29 24 18 19 22 23 20 19 20 17 23 17 22 23 25 26 27 28 30 30 29 28 28 29
32 32 27 22 20 19 12 11 8 13 12 12 12 17 19 20 22 23 25 27 28 27 27 27 27 27 27
24 18 14 19 23 18 18 11 8 7 11 13 13 12 14 18 22 24 26 26 24 23 24 25 25 25 25
21 10 13 16 7 5 5 7 7 8 8 10 12 14 18 21 22 23 21 19 19 21 22 23 24 23 23
Wind_Direction
280 275 274 275 275 274 274 274 276 278 279 280 280 281 282 283 283 283 283 283 282 281 280 279 279 277 276
279 276 276 278 278 278 277 276 276 277 279 280 280 280 281 282 282 282 282 282 282 281 280 278 279 278 273
281 279 278 277 277 277 277 277 277 277 278 280 280 280 280 280 281 281 282 282 280 280 280 279 275 271 267
282 281 280 279 279 279 279 280 279 279 279 279 279 279 280 280 280 279 279 278 278 276 275 273 269 264 259
284 284 284 283 282 282 281 280 280 280 280 279 279 279 279 278 277 276 275 274 272 270 268 264 260 256 253
286 286 286 285 284 284 283 283 282 282 280 280 279 277 276 275 275 273 271 269 266 263 257 254 252 252 253
289 288 287 286 285 283 282 281 281 280 278 277 276 275 274 272 271 268 266 261 255 250 250 249 250 252 254
286 286 285 284 283 281 280 279 278 278 277 277 276 275 272 268 263 256 251 247 247 249 249 251 252 252 252
288 286 285 283 282 280 279 278 278 279 279 278 275 269 261 252 251 244 242 243 246 249 250 250 250 251 252
287 285 284 283 283 283 283 285 284 279 276 271 263 252 241 248 247 237 237 238 240 243 247 249 251 251 251
285 286 285 285 287 289 288 285 280 274 268 256 237 234 241 255 232 225 233 235 235 244 249 252 252 251 250
291 292 290 290 292 290 284 282 262 254 242 242 240 245 255 233 223 230 234 230 236 247 252 253 252 251 252
295 288 292 294 290 287 278 268 245 250 249 243 242 242 230 229 236 236 228 235 244 252 254 254 253 250 245
296 292 294 287 298 284 273 257 264 248 262 229 246 225 236 234 238 230 236 242 251 255 255 250 245 243 242
297 296 286 275 291 274 259 272 245 231 237 235 237 229 238 241 238 240 247 255 258 254 247 244 242 240 238
295 294 283 276 284 263 263 251 221 243 247 244 238 235 239 243 247 253 259 259 251 243 242 241 238 233 230
296 276 297 289 268 213 236 244 262 246 231 233 243 248 253 257 260 259 253 247 244 240 237 236 233 227 223
Height
5606 5604 5603 5599 5598 5597 5597 5595 5593 5589 5586 5583 5582 5580 5579 5578 5577 5576 5576 5575 5575 5574 5574 5573 5573 5574 5574
5587 5585 5583 5580 5579 5576 5574 5573 5572 5568 5564 5562 5560 5557 5555 5554 5553 5552 5551 5551 5550 5549 5549 5549 5548 5548 5547
5568 5563 5561 5558 5556 5554 5551 5549 5547 5544 5541 5538 5535 5532 5529 5528 5526 5525 5524 5523 5522 5522 5522 5522 5521 5523 5524
5546 5543 5539 5535 5530 5528 5526 5522 5521 5518 5515 5513 5509 5505 5502 5500 5498 5496 5496 5495 5494 5494 5495 5497 5498 5500 5502
5522 5518 5515 5510 5504 5500 5496 5494 5495 5490 5487 5485 5479 5477 5473 5469 5467 5466 5466 5466 5467 5468 5471 5474 5477 5480 5482
5495 5492 5489 5483 5478 5471 5466 5464 5465 5461 5454 5455 5446 5446 5442 5438 5436 5437 5437 5439 5442 5446 5450 5454 5458 5462 5465
5469 5464 5460 5453 5447 5442 5435 5430 5431 5428 5419 5422 5413 5414 5409 5407 5409 5411 5413 5417 5422 5427 5432 5437 5441 5445 5449
5441 5437 5428 5423 5412 5405 5401 5398 5396 5395 5387 5385 5384 5384 5383 5383 5385 5390 5393 5399 5405 5411 5416 5422 5427 5430 5434
5409 5403 5395 5389 5381 5371 5370 5365 5365 5366 5362 5359 5361 5359 5362 5364 5368 5373 5379 5386 5393 5398 5403 5408 5412 5416 5420
5381 5374 5367 5362 5355 5347 5343 5341 5340 5338 5343 5338 5340 5343 5347 5352 5356 5362 5369 5376 5382 5388 5392 5396 5399 5403 5406
5356 5352 5348 5343 5339 5334 5329 5323 5322 5322 5323 5325 5330 5334 5338 5343 5347 5354 5360 5366 5372 5377 5381 5384 5387 5391 5393
5340 5337 5334 5331 5326 5320 5315 5312 5311 5313 5315 5318 5323 5328 5330 5335 5341 5346 5352 5358 5364 5368 5371 5373 5376 5379 5381
5328 5326 5323 5318 5313 5310 5307 5306 5306 5309 5310 5314 5318 5321 5325 5331 5335 5340 5346 5351 5355 5358 5360 5363 5365 5368 5371
5317 5315 5311 5308 5305 5302 5302 5301 5302 5303 5305 5308 5313 5317 5321 5326 5330 5335 5340 5344 5347 5349 5350 5352 5355 5358 5361
5307 5304 5301 5300 5298 5297 5297 5298 5299 5301 5303 5306 5309 5313 5317 5321 5325 5329 5333 5336 5338 5339 5341 5343 5346 5349 5353
5299 5296 5294 5294 5292 5292 5293 5295 5297 5299 5301 5304 5307 5310 5313 5316 5320 5322 5325 5327 5329 5331 5332 5335 5338 5342 5346
5293 5292 5291 5289 5289 5290 5291 5293 5295 5297 5299 5302 5304 5307 5309 5311 5313 5315 5317 5319 5322 5323 5326 5328 5331 5336 5339